WY7EM Weather Reports


Display with metric or nautical units.
time (UTC)temp
F
wind
direction
speed
MPH
gust
MPH
rain 1hr
in
rain 24hr
in
rain mn
in
humidity
%
barometer
mb
20260507014906 72 358 2.0 2.0 0.00 0.00 0.00 24 1014.8
20260507014402 72 9 2.0 2.0 0.00 0.00 0.00 24 1014.9
20260507013859 72 28 1.0 2.0 0.00 0.00 0.00 23 1014.8
20260507013356 72 16 1.0 1.0 0.00 0.00 0.00 23 1014.7
20260507012853 72 26 2.0 3.0 0.00 0.00 0.00 23 1014.8
20260507012350 73 355 2.0 2.0 0.00 0.00 0.00 23 1014.8
20260507011847 74 6 2.0 3.0 0.00 0.00 0.00 23 1014.6
20260507011344 74 24 2.0 3.0 0.00 0.00 0.00 24 1014.6
20260507010843 73 35 2.0 2.0 0.00 0.00 0.00 24 1014.6
20260507010339 74 35 2.0 4.0 0.00 0.00 0.00 24 1014.4
20260507005837 75 8 1.0 2.0 0.00 0.00 0.00 23 1014.3
20260507005333 74 354 2.0 2.0 0.00 0.00 0.00 24 1014.4
20260507004830 75 36 2.0 2.0 0.00 0.00 0.00 23 1014.4
20260507004327 75 3 1.0 1.0 0.00 0.00 0.00 23 1014.3
20260507003824 75 5 1.0 2.0 0.00 0.00 0.00 24 1014.1
20260507003320 75 28 4.0 9.0 0.00 0.00 0.00 23 1014.1
20260507002815 75 357 1.0 2.0 0.00 0.00 0.00 23 1014.0
20260507002311 75 345 1.0 2.0 0.00 0.00 0.00 22 1014.0
20260507001809 76 352 7.0 9.0 0.00 0.00 0.00 23 1014.0
20260507001306 76 326 3.0 4.0 0.00 0.00 0.00 22 1014.1
20260507000802 76 98 2.0 6.0 0.00 0.00 0.00 24 1013.8
20260507000259 76 5 1.0 1.0 0.00 0.00 0.00 21 1013.8
20260506235754 76 349 2.0 3.0 0.00 0.00 0.00 23 1013.9
20260506235250 76 350 4.0 6.0 0.00 0.00 0.00 23 1013.9
20260506234748 76 340 4.0 6.0 0.00 0.00 0.00 22 1013.8
20260506234245 77 3 4.0 6.0 0.00 0.00 0.00 23 1013.9
20260506233743 76 34 1.0 2.0 0.00 0.00 0.00 22 1013.7
20260506233239 76 14 2.0 3.0 0.00 0.00 0.00 23 1013.5
20260506232736 76 359 1.0 2.0 0.00 0.00 0.00 23 1013.8
20260506232235 77 358 3.0 4.0 0.00 0.00 0.00 23 1013.8
20260506231733 77 8 2.0 3.0 0.00 0.00 0.00 22 1013.9
20260506231231 77 49 2.0 2.0 0.00 0.00 0.00 21 1013.7
20260506230728 77 3 5.0 7.0 0.00 0.00 0.00 22 1013.7
20260506230225 77 18 4.0 8.0 0.00 0.00 0.00 22 1013.7
20260506225721 77 17 5.0 8.0 0.00 0.00 0.00 22 1013.7
20260506225218 77 21 1.0 2.0 0.00 0.00 0.00 21 1013.6
20260506224715 77 14 3.0 3.0 0.00 0.00 0.00 21 1013.6
20260506224212 77 12 2.0 2.0 0.00 0.00 0.00 21 1013.6
20260506223708 77 4 2.0 2.0 0.00 0.00 0.00 21 1013.3
20260506223204 77 25 3.0 4.0 0.00 0.00 0.00 21 1013.5
20260506222701 76 352 3.0 6.0 0.00 0.00 0.00 21 1013.8
20260506222156 77 3 6.0 8.0 0.00 0.00 0.00 21 1013.7
20260506221655 77 18 2.0 2.0 0.00 0.00 0.00 21 1013.5
20260506221153 77 344 2.0 3.0 0.00 0.00 0.00 21 1013.5
20260506220649 75 358 2.0 3.0 0.00 0.00 0.00 22 1013.5
20260506220144 75 353 5.0 7.0 0.00 0.00 0.00 21 1013.7
20260506215641 74 335 3.0 4.0 0.00 0.00 0.00 22 1013.3
20260506215136 75 343 6.0 7.0 0.00 0.00 0.00 22 1013.7
20260506214633 75 20 4.0 4.0 0.00 0.00 0.00 21 1013.6
20260506214131 74 33 0.0 1.0 0.00 0.00 0.00 21 1013.6
20260506213629 74 335 4.0 6.0 0.00 0.00 0.00 22 1013.7
20260506213126 74 17 0.0 1.0 0.00 0.00 0.00 22 1013.8
20260506212623 73 347 5.0 6.0 0.00 0.00 0.00 23 1013.6
20260506212118 74 359 5.0 7.0 0.00 0.00 0.00 23 1013.6
20260506211614 75 19 4.0 6.0 0.00 0.00 0.00 22 1013.5
20260506211111 73 359 9.0 11.0 0.00 0.00 0.00 23 1013.6
20260506210608 74 344 4.0 6.0 0.00 0.00 0.00 22 1013.5
20260506210104 75 68 3.0 3.0 0.00 0.00 0.00 21 1013.5
20260506205601 75 0 8.0 10.0 0.00 0.00 0.00 22 1013.7
20260506205056 75 38 4.0 6.0 0.00 0.00 0.00 21 1013.6
20260506204555 73 302 6.0 7.0 0.00 0.00 0.00 23 1013.5
20260506204051 74 0 3.0 3.0 0.00 0.00 0.00 23 1013.5
20260506203550 72 356 3.0 3.0 0.00 0.00 0.00 24 1013.3
20260506203046 73 342 5.0 6.0 0.00 0.00 0.00 23 1013.2
20260506202543 73 15 6.0 8.0 0.00 0.00 0.00 23 1013.3
20260506202039 73 263 8.0 15.0 0.00 0.00 0.00 23 1013.3
20260506201537 73 300 10.0 14.0 0.00 0.00 0.00 23 1013.1
20260506201034 74 187 6.0 10.0 0.00 0.00 0.00 23 1013.0
20260506200530 73 302 5.0 7.0 0.00 0.00 0.00 24 1013.2
20260506200027 73 299 6.0 9.0 0.00 0.00 0.00 23 1013.2
20260506195524 73 251 12.0 15.0 0.00 0.00 0.00 24 1013.2
20260506195020 73 294 5.0 6.0 0.00 0.00 0.00 24 1013.2
20260506194518 73 304 9.0 11.0 0.00 0.00 0.00 24 1013.1
20260506194014 73 295 3.0 3.0 0.00 0.00 0.00 25 1013.3
20260506193511 71 302 7.0 9.0 0.00 0.00 0.00 24 1013.6
20260506193008 72 286 7.0 8.0 0.00 0.00 0.00 24 1013.6
20260506192505 71 313 8.0 11.0 0.00 0.00 0.00 24 1013.7
20260506192001 72 326 7.0 10.0 0.00 0.00 0.00 25 1013.5
20260506191458 71 309 7.0 8.0 0.00 0.00 0.00 25 1013.8
20260506190954 71 267 6.0 10.0 0.00 0.00 0.00 25 1013.6
20260506190451 70 238 5.0 6.0 0.00 0.00 0.00 25 1013.8
20260506185948 72 272 4.0 6.0 0.00 0.00 0.00 25 1013.9
20260506185445 72 256 2.0 3.0 0.00 0.00 0.00 25 1013.8
20260506184942 72 294 10.0 13.0 0.00 0.00 0.00 25 1013.9
20260506184439 71 268 6.0 7.0 0.00 0.00 0.00 26 1013.9
20260506183936 72 238 4.0 4.0 0.00 0.00 0.00 25 1013.9
20260506183431 70 329 9.0 15.0 0.00 0.00 0.00 26 1014.1
20260506182929 72 236 11.0 15.0 0.00 0.00 0.00 25 1014.1
20260506182426 70 183 5.0 6.0 0.00 0.00 0.00 27 1014.1
20260506181923 70 260 6.0 8.0 0.00 0.00 0.00 27 1014.3
20260506181421 70 261 8.0 9.0 0.00 0.00 0.00 26 1014.5
20260506180918 70 337 9.0 11.0 0.00 0.00 0.00 26 1014.4
20260506180414 69 323 7.0 9.0 0.00 0.00 0.00 27 1014.5
20260506175911 70 317 4.0 6.0 0.00 0.00 0.00 27 1014.5
20260506175408 69 303 7.0 9.0 0.00 0.00 0.00 26 1014.8
20260506174905 69 254 6.0 10.0 0.00 0.00 0.00 27 1014.6
20260506174402 70 307 5.0 6.0 0.00 0.00 0.00 27 1014.4
20260506173859 69 296 9.0 14.0 0.00 0.00 0.00 27 1014.7
20260506173356 69 16 4.0 7.0 0.00 0.00 0.00 28 1014.6
20260506172853 68 315 9.0 11.0 0.00 0.00 0.00 28 1014.6
20260506172350 69 321 6.0 7.0 0.00 0.00 0.00 28 1014.7
20260506171847 67 283 4.0 6.0 0.00 0.00 0.00 29 1014.5
20260506171344 67 326 6.0 10.0 0.00 0.00 0.00 29 1014.7
20260506170842 68 330 5.0 7.0 0.00 0.00 0.00 29 1014.6
20260506170338 67 6 7.0 10.0 0.00 0.00 0.00 29 1014.6
20260506165837 67 161 4.0 6.0 0.00 0.00 0.00 29 1014.6
20260506165335 66 0 5.0 7.0 0.00 0.00 0.00 30 1014.5
20260506164831 66 299 4.0 7.0 0.00 0.00 0.00 29 1014.6
20260506164327 67 294 11.0 15.0 0.00 0.00 0.00 29 1014.5
20260506163825 67 327 5.0 6.0 0.00 0.00 0.00 29 1014.4
20260506163319 66 345 4.0 9.0 0.00 0.00 0.00 30 1014.5
20260506162815 65 331 4.0 7.0 0.00 0.00 0.00 30 1014.1
20260506162313 65 259 9.0 11.0 0.00 0.00 0.00 30 1014.5
20260506161810 66 251 8.0 11.0 0.00 0.00 0.00 30 1014.5
20260506161308 65 284 6.0 8.0 0.00 0.00 0.00 31 1014.5
20260506160805 65 16 2.0 3.0 0.00 0.00 0.00 31 1014.6
20260506160302 64 239 4.0 6.0 0.00 0.00 0.00 31 1014.5
20260506155801 64 179 6.0 7.0 0.00 0.00 0.00 31 1014.5
20260506155257 64 283 8.0 9.0 0.00 0.00 0.00 32 1014.7
20260506153410 63 248 5.0 6.0 0.00 0.00 0.00 32 1014.6
20260506152907 63 287 7.0 13.0 0.00 0.00 0.00 32 1014.5
20260506152404 63 270 7.0 8.0 0.00 0.00 0.00 32 1014.3
20260506151902 62 252 6.0 9.0 0.00 0.00 0.00 32 1014.5
20260506151359 62 298 7.0 9.0 0.00 0.00 0.00 32 1014.4
20260506150856 62 229 6.0 8.0 0.00 0.00 0.00 33 1014.4
20260506150352 62 243 6.0 7.0 0.00 0.00 0.00 32 1014.3
20260506145849 62 246 10.0 11.0 0.00 0.00 0.00 32 1014.4
20260506145345 62 206 10.0 11.0 0.00 0.00 0.00 32 1014.4
20260506144843 62 326 4.0 4.0 0.00 0.00 0.00 32 1014.6
20260506144339 61 320 3.0 6.0 0.00 0.00 0.00 32 1014.3
20260506143838 61 296 5.0 6.0 0.00 0.00 0.00 32 1014.5
20260506143335 60 326 4.0 6.0 0.00 0.00 0.00 33 1014.3
20260506142833 60 353 2.0 2.0 0.00 0.00 0.00 33 1014.6
20260506142331 59 1 3.0 3.0 0.00 0.00 0.00 34 1014.5
20260506141829 59 353 3.0 3.0 0.00 0.00 0.00 34 1014.6
20260506141327 59 6 2.0 2.0 0.00 0.00 0.00 34 1014.6
20260506140824 59 252 6.0 8.0 0.00 0.00 0.00 34 1014.6
20260506140321 58 295 4.0 4.0 0.00 0.00 0.00 34 1014.6
20260506135818 58 336 4.0 6.0 0.00 0.00 0.00 34 1014.5
20260506135314 58 11 3.0 3.0 0.00 0.00 0.00 34 1014.3
20260506134811 58 317 3.0 4.0 0.00 0.00 0.00 34 1014.1
20260506134307 58 337 2.0 3.0 0.00 0.00 0.00 34 1014.3
20260506133804 58 313 2.0 3.0 0.00 0.00 0.00 34 1014.0
20260506133301 57 291 3.0 4.0 0.00 0.00 0.00 34 1014.0
20260506132758 57 320 4.0 6.0 0.00 0.00 0.00 35 1013.8
20260506132255 57 325 7.0 10.0 0.00 0.00 0.00 34 1013.8
20260506131753 57 314 3.0 6.0 0.00 0.00 0.00 35 1013.7
20260506131249 57 272 4.0 4.0 0.00 0.00 0.00 34 1013.7
20260506130746 57 214 4.0 6.0 0.00 0.00 0.00 34 1013.8
20260506130243 57 294 4.0 4.0 0.00 0.00 0.00 35 1013.5
20260506125741 56 345 1.0 1.0 0.00 0.00 0.00 35 1013.3
20260506125238 57 0 2.0 2.0 0.00 0.00 0.00 35 1013.3
20260506124737 56 317 4.0 6.0 0.00 0.00 0.00 35 1013.2
20260506124234 57 281 5.0 6.0 0.00 0.00 0.00 35 1013.0
20260506123731 57 305 5.0 6.0 0.00 0.00 0.00 34 1012.9
20260506123230 57 201 5.0 6.0 0.00 0.00 0.00 34 1012.8
20260506122726 57 314 6.0 8.0 0.00 0.00 0.00 34 1012.9
20260506122224 57 247 5.0 6.0 0.00 0.00 0.00 34 1012.8
20260506121722 57 278 5.0 6.0 0.00 0.00 0.00 34 1012.6
20260506121218 58 283 3.0 3.0 0.00 0.00 0.00 34 1012.6
20260506120716 58 252 4.0 4.0 0.00 0.00 0.00 33 1012.3
20260506120213 57 275 5.0 6.0 0.00 0.00 0.00 34 1012.1
20260506115711 57 268 4.0 7.0 0.00 0.00 0.00 33 1012.3
20260506115209 57 258 3.0 4.0 0.00 0.00 0.00 33 1012.1
20260506114706 57 257 2.0 3.0 0.00 0.00 0.00 34 1012.0
20260506114204 58 229 4.0 6.0 0.00 0.00 0.00 33 1012.1
20260506113703 58 284 4.0 6.0 0.00 0.00 0.00 33 1012.3
20260506113159 58 298 3.0 3.0 0.00 0.00 0.00 33 1012.0
20260506112655 58 323 2.0 2.0 0.00 0.00 0.00 33 1011.9
20260506112153 58 287 4.0 4.0 0.00 0.00 0.00 33 1012.0
20260506111650 57 273 2.0 4.0 0.00 0.00 0.00 32 1011.8
20260506111148 57 329 2.0 2.0 0.00 0.00 0.00 32 1012.0
20260506110646 58 99 4.0 4.0 0.00 0.00 0.00 32 1011.8
20260506110143 58 333 3.0 3.0 0.00 0.00 0.00 32 1011.8
20260506105639 58 313 3.0 3.0 0.00 0.00 0.00 31 1011.8
20260506105136 58 1 2.0 3.0 0.00 0.00 0.00 31 1011.8
20260506104634 57 355 2.0 2.0 0.00 0.00 0.00 32 1011.9
20260506104131 58 340 2.0 2.0 0.00 0.00 0.00 32 1011.8
20260506103629 58 309 2.0 3.0 0.00 0.00 0.00 32 1011.8
20260506103125 59 256 6.0 7.0 0.00 0.00 0.00 31 1011.4
20260506102624 59 301 2.0 2.0 0.00 0.00 0.00 31 1011.5
20260506102121 58 303 2.0 3.0 0.00 0.00 0.00 32 1011.4
20260506101617 59 13 1.0 1.0 0.00 0.00 0.00 31 1011.5
20260506101114 59 244 5.0 6.0 0.00 0.00 0.00 31 1011.4
20260506100613 59 5 1.0 2.0 0.00 0.00 0.00 31 1011.3
20260506100110 59 277 6.0 6.0 0.00 0.00 0.00 31 1011.4
20260506095609 59 6 2.0 2.0 0.00 0.00 0.00 31 1011.4
20260506095105 59 209 6.0 7.0 0.00 0.00 0.00 31 1011.3
20260506094603 59 261 7.0 13.0 0.00 0.00 0.00 31 1011.2
20260506094100 59 133 3.0 4.0 0.00 0.00 0.00 30 1011.2
20260506093558 59 265 6.0 9.0 0.00 0.00 0.00 31 1011.2
20260506093055 60 15 1.0 1.0 0.00 0.00 0.00 30 1011.2
20260506092553 59 239 6.0 8.0 0.00 0.00 0.00 30 1011.2
20260506092050 59 238 7.0 11.0 0.00 0.00 0.00 30 1011.0
20260506091548 59 263 6.0 9.0 0.00 0.00 0.00 30 1011.2
20260506091045 60 316 3.0 3.0 0.00 0.00 0.00 30 1011.1
20260506090543 59 237 1.0 2.0 0.00 0.00 0.00 30 1011.1
20260506090039 59 300 2.0 3.0 0.00 0.00 0.00 31 1011.2
20260506085536 59 5 2.0 2.0 0.00 0.00 0.00 30 1011.0
20260506085032 59 154 5.0 6.0 0.00 0.00 0.00 30 1010.8
20260506084530 59 285 3.0 6.0 0.00 0.00 0.00 30 1011.1
20260506084025 59 179 4.0 4.0 0.00 0.00 0.00 31 1011.0
20260506083523 59 3 4.0 8.0 0.00 0.00 0.00 30 1011.1
20260506083020 59 358 2.0 3.0 0.00 0.00 0.00 31 1011.0
20260506082517 59 196 4.0 4.0 0.00 0.00 0.00 30 1011.0
20260506082012 60 275 2.0 4.0 0.00 0.00 0.00 30 1011.0
20260506081511 60 92 3.0 4.0 0.00 0.00 0.00 30 1011.2
20260506081008 60 214 4.0 7.0 0.00 0.00 0.00 30 1011.1
20260506080505 60 273 3.0 4.0 0.00 0.00 0.00 30 1011.0
20260506073449 60 224 9.0 11.0 0.00 0.00 0.00 30 1010.8
20260506072946 60 204 9.0 15.0 0.00 0.00 0.00 30 1010.8
20260506072443 60 248 4.0 4.0 0.00 0.00 0.00 31 1010.8
20260506071941 60 238 4.0 6.0 0.00 0.00 0.00 30 1010.8
20260506071439 61 351 2.0 3.0 0.00 0.00 0.00 30 1010.8
20260506070935 61 272 4.0 6.0 0.00 0.00 0.00 29 1010.8
20260506070432 61 34 3.0 4.0 0.00 0.00 0.00 29 1010.8
20260506062410 62 219 4.0 7.0 0.00 0.00 0.00 28 1010.4
20260506061906 62 266 6.0 9.0 0.00 0.00 0.00 28 1010.3
20260506061402 62 261 5.0 6.0 0.00 0.00 0.00 28 1010.3
20260506060900 62 246 4.0 7.0 0.00 0.00 0.00 28 1010.3
20260506060358 62 173 4.0 9.0 0.00 0.00 0.00 27 1010.4
20260506051330 63 206 11.0 14.0 0.00 0.00 0.00 27 1009.8
20260506050828 63 229 5.0 7.0 0.00 0.00 0.00 27 1009.8
20260506050325 63 275 6.0 8.0 0.00 0.00 0.00 27 1009.9
20260506044815 64 216 10.0 13.0 0.00 0.00 0.00 26 1009.4
20260506044313 64 260 8.0 10.0 0.00 0.00 0.00 26 1009.1
20260506043810 64 289 7.0 13.0 0.00 0.00 0.00 25 1009.3
20260506043307 64 234 7.0 10.0 0.00 0.00 0.00 25 1009.1
20260506042806 64 262 6.0 9.0 0.00 0.00 0.00 25 1009.3
20260506042305 64 238 6.0 13.0 0.00 0.00 0.00 24 1009.1
20260506041802 64 226 5.0 7.0 0.00 0.00 0.00 25 1008.9
20260506041259 65 247 5.0 7.0 0.00 0.00 0.00 24 1008.9
20260506040756 65 212 6.0 9.0 0.00 0.00 0.00 24 1009.0
20260506040254 65 265 6.0 8.0 0.00 0.00 0.00 24 1008.9
20260506035750 65 334 5.0 7.0 0.00 0.00 0.00 24 1008.7
20260506035247 65 264 7.0 10.0 0.00 0.00 0.00 24 1008.5
20260506034744 65 350 8.0 10.0 0.00 0.00 0.00 24 1008.7
20260506034241 65 240 12.0 15.0 0.00 0.00 0.00 24 1008.5
20260506033738 65 230 11.0 14.0 0.00 0.00 0.00 24 1008.3
20260506033236 65 244 10.0 10.0 0.00 0.00 0.00 24 1007.9
20260506032732 65 218 13.0 21.0 0.00 0.00 0.00 23 1007.9
20260506032229 65 266 10.0 13.0 0.00 0.00 0.00 23 1008.0
20260506031726 66 15 6.0 8.0 0.00 0.00 0.00 23 1007.6
20260506031223 66 248 8.0 10.0 0.00 0.00 0.00 23 1007.7
20260506030721 66 209 7.0 10.0 0.00 0.00 0.00 23 1007.4
20260506030219 66 48 4.0 7.0 0.00 0.00 0.00 23 1007.3
20260506025715 66 218 8.0 9.0 0.00 0.00 0.00 23 1007.3
20260506025212 66 243 6.0 8.0 0.00 0.00 0.00 23 1007.3
20260506024709 66 305 6.0 9.0 0.00 0.00 0.00 23 1007.2
20260506024205 66 282 9.0 11.0 0.00 0.00 0.00 23 1006.8
20260506023701 67 215 7.0 9.0 0.00 0.00 0.00 23 1006.9
20260506023159 67 265 7.0 9.0 0.00 0.00 0.00 23 1006.8
20260506022656 67 259 10.0 11.0 0.00 0.00 0.00 23 1006.8
20260506022153 67 307 4.0 6.0 0.00 0.00 0.00 22 1006.4
20260506021651 67 275 11.0 14.0 0.00 0.00 0.00 22 1006.4
20260506021148 67 208 2.0 3.0 0.00 0.00 0.00 22 1006.3
20260506020645 67 243 6.0 7.0 0.00 0.00 0.00 22 1006.5
20260506020143 67 224 6.0 9.0 0.00 0.00 0.00 22 1006.4
20260506015640 68 153 9.0 10.0 0.00 0.00 0.00 21 1006.4
20260506015137 68 278 4.0 4.0 0.00 0.00 0.00 20 1006.4